Location: Newark
(17.1458°N, 89.0741°W)
Time: 02:16:50
(UTC+00:00)

N. Korean satellite - Pass Details

Date: 31 July 2019
Orbit: 457 x 507 km, 97.2° (Epoch: 24 August)

Event Time Altitude Azimuth Distance (km) Brightness Sun altitude
Rises 10:58:55 0° 34° (NE) 2,600 11.3 -9.0°
Reaches altitude 10° 11:01:32 10° 53° (NE) 1,710 10.8 -8.5°
Maximum altitude 11:04:05 18° 98° (E) 1,282 9.6 -7.9°
Drops below altitude 10° 11:06:38 10° 142° (SE) 1,694 9.5 -7.3°
Sets 11:09:12 0° 162° (SSE) 2,566 10.2 -6.8°
